Time,TemperatureF,DewpointF,PressureIn,WindDirection,WindDirectionDegrees,WindSpeedMPH,WindSpeedGustMPH,Humidity,HourlyPrecipIn,Conditions,Clouds,dailyrainin,SoftwareType,DateUTC
2016-02-10 00:00:00,26.9,19.1,29.84,West,277,2.0,8.0,72,0.00,,,0.00,Wunderground v.1.15,2016-02-10 05:00:00,
2016-02-10 00:05:00,26.8,18.7,29.84,West,277,2.0,8.0,71,0.00,,,0.00,Wunderground v.1.15,2016-02-10 05:05:00,
2016-02-10 00:10:00,26.7,18.9,29.84,West,277,2.0,2.0,72,0.00,,,0.00,Wunderground v.1.15,2016-02-10 05:10:00,
2016-02-10 00:15:00,26.5,19.0,29.84,West,277,2.0,3.0,73,0.00,,,0.00,Wunderground v.1.15,2016-02-10 05:15:00,
2016-02-10 00:25:00,26.3,19.1,29.84,West,271,2.0,3.0,74,0.00,,,0.00,Wunderground v.1.15,2016-02-10 05:25:00,
2016-02-10 00:35:00,26.1,18.9,29.84,West,269,2.0,8.0,74,0.00,,,0.00,Wunderground v.1.15,2016-02-10 05:35:00,
2016-02-10 00:40:00,26.1,18.9,29.84,West,270,2.0,8.0,74,0.00,,,0.00,Wunderground v.1.15,2016-02-10 05:40:00,
2016-02-10 00:45:00,26.1,18.6,29.84,West,271,2.0,8.0,73,0.00,,,0.00,Wunderground v.1.15,2016-02-10 05:45:00,
2016-02-10 00:50:00,26.2,18.7,29.85,West,277,3.0,8.0,73,0.00,,,0.00,Wunderground v.1.15,2016-02-10 05:50:00,
2016-02-10 00:55:00,26.2,18.7,29.85,West,278,3.0,8.0,73,0.00,,,0.00,Wunderground v.1.15,2016-02-10 05:55:00,
2016-02-10 01:00:00,26.1,18.6,29.85,West,281,3.0,8.0,73,0.00,,,0.00,Wunderground v.1.15,2016-02-10 06:00:00,
2016-02-10 01:05:00,26.1,18.6,29.85,West,281,3.0,8.0,73,0.00,,,0.00,Wunderground v.1.15,2016-02-10 06:05:00,
2016-02-10 01:15:00,25.8,18.7,29.84,West,259,2.0,8.0,74,0.00,,,0.00,Wunderground v.1.15,2016-02-10 06:15:00,
2016-02-10 01:20:00,25.7,18.6,29.85,West,259,1.0,8.0,74,0.00,,,0.00,Wunderground v.1.15,2016-02-10 06:20:00,
2016-02-10 01:25:00,25.6,18.8,29.85,West,259,1.0,8.0,75,0.00,,,0.00,Wunderground v.1.15,2016-02-10 06:25:00,
2016-02-10 01:30:00,25.6,18.8,29.85,West,259,1.0,8.0,75,0.00,,,0.00,Wunderground v.1.15,2016-02-10 06:30:00,
2016-02-10 01:35:00,25.6,18.8,29.85,West,259,1.0,8.0,75,0.00,,,0.00,Wunderground v.1.15,2016-02-10 06:35:00,
2016-02-10 01:40:00,25.6,18.8,29.85,West,259,1.0,8.0,75,0.00,,,0.00,Wunderground v.1.15,2016-02-10 06:40:00,
2016-02-10 01:55:00,25.4,18.9,29.85,West,259,2.0,8.0,76,0.00,,,0.00,Wunderground v.1.15,2016-02-10 06:55:00,
2016-02-10 02:00:00,25.2,18.7,29.85,West,259,1.0,1.0,76,0.00,,,0.00,Wunderground v.1.15,2016-02-10 07:00:00,
2016-02-10 02:05:00,25.2,18.7,29.85,West,259,1.0,8.0,76,0.00,,,0.00,Wunderground v.1.15,2016-02-10 07:05:00,
2016-02-10 02:10:00,25.1,18.6,29.85,West,259,1.0,1.0,76,0.00,,,0.00,Wunderground v.1.15,2016-02-10 07:10:00,
2016-02-10 02:15:00,25.1,18.6,29.84,West,259,1.0,8.0,76,0.00,,,0.00,Wunderground v.1.15,2016-02-10 07:15:00,
2016-02-10 02:20:00,25.1,18.6,29.85,West,260,2.0,8.0,76,0.00,,,0.00,Wunderground v.1.15,2016-02-10 07:20:00,
2016-02-10 02:30:00,24.8,18.9,29.85,West,260,2.0,8.0,78,0.00,,,0.00,Wunderground v.1.15,2016-02-10 07:30:00,
2016-02-10 02:35:00,24.8,18.6,29.85,West,260,1.0,8.0,77,0.00,,,0.00,Wunderground v.1.15,2016-02-10 07:35:00,
2016-02-10 02:45:00,24.6,18.7,29.84,West,260,1.0,8.0,78,0.00,,,0.00,Wunderground v.1.15,2016-02-10 07:45:00,
2016-02-10 02:50:00,24.5,18.9,29.85,West,260,1.0,8.0,79,0.00,,,0.00,Wunderground v.1.15,2016-02-10 07:50:00,
2016-02-10 02:55:00,24.5,19.2,29.84,West,260,1.0,8.0,80,0.00,,,0.00,Wunderground v.1.15,2016-02-10 07:55:00,
2016-02-10 03:00:00,24.4,19.1,29.85,West,260,1.0,8.0,80,0.00,,,0.00,Wunderground v.1.15,2016-02-10 08:00:00,
2016-02-10 03:05:00,24.3,19.3,29.84,West,260,1.0,8.0,81,0.00,,,0.00,Wunderground v.1.15,2016-02-10 08:05:00,
2016-02-10 03:15:00,23.9,19.2,29.84,West,260,1.0,8.0,82,0.00,,,0.00,Wunderground v.1.15,2016-02-10 08:15:00,
2016-02-10 03:20:00,23.8,19.4,29.84,West,260,1.0,1.0,83,0.00,,,0.00,Wunderground v.1.15,2016-02-10 08:20:00,
2016-02-10 03:25:00,23.8,19.4,29.84,West,260,1.0,8.0,83,0.00,,,0.00,Wunderground v.1.15,2016-02-10 08:25:00,
2016-02-10 03:30:00,23.8,19.1,29.84,West,260,0.0,8.0,82,0.00,,,0.00,Wunderground v.1.15,2016-02-10 08:30:00,
2016-02-10 03:35:00,23.8,19.1,29.85,West,260,1.0,8.0,82,0.00,,,0.00,Wunderground v.1.15,2016-02-10 08:35:00,
2016-02-10 03:40:00,23.8,19.1,29.85,West,260,1.0,8.0,82,0.00,,,0.00,Wunderground v.1.15,2016-02-10 08:40:00,
2016-02-10 03:50:00,23.8,19.1,29.85,West,261,2.0,2.0,82,0.00,,,0.00,Wunderground v.1.15,2016-02-10 08:50:00,
2016-02-10 04:00:00,23.9,19.2,29.85,West,261,2.0,8.0,82,0.00,,,0.00,Wunderground v.1.15,2016-02-10 09:00:00,
2016-02-10 04:05:00,23.8,19.1,29.85,West,261,1.0,8.0,82,0.00,,,0.00,Wunderground v.1.15,2016-02-10 09:05:00,
2016-02-10 04:10:00,23.7,19.0,29.85,West,261,0.0,8.0,82,0.00,,,0.00,Wunderground v.1.15,2016-02-10 09:10:00,
2016-02-10 04:15:00,23.6,19.2,29.86,WSW,258,1.0,8.0,83,0.00,,,0.00,Wunderground v.1.15,2016-02-10 09:15:00,
2016-02-10 04:20:00,23.6,19.2,29.86,WSW,253,2.0,8.0,83,0.00,,,0.00,Wunderground v.1.15,2016-02-10 09:20:00,
2016-02-10 04:30:00,23.5,19.1,29.87,WSW,251,2.0,2.0,83,0.00,,,0.00,Wunderground v.1.15,2016-02-10 09:30:00,
2016-02-10 04:35:00,23.5,19.1,29.87,WSW,250,2.0,8.0,83,0.00,,,0.00,Wunderground v.1.15,2016-02-10 09:35:00,
2016-02-10 04:45:00,23.5,19.1,29.87,WSW,251,2.0,8.0,83,0.00,,,0.00,Wunderground v.1.15,2016-02-10 09:45:00,
2016-02-10 04:50:00,23.5,19.1,29.88,WSW,251,1.0,8.0,83,0.00,,,0.00,Wunderground v.1.15,2016-02-10 09:50:00,
2016-02-10 04:55:00,23.5,19.1,29.88,WSW,249,2.0,8.0,83,0.00,,,0.00,Wunderground v.1.15,2016-02-10 09:55:00,
2016-02-10 05:00:00,23.4,19.0,29.88,WSW,249,2.0,2.0,83,0.00,,,0.00,Wunderground v.1.15,2016-02-10 10:00:00,
2016-02-10 05:10:00,23.4,19.0,29.89,WSW,248,1.0,1.0,83,0.00,,,0.00,Wunderground v.1.15,2016-02-10 10:10:00,
2016-02-10 05:15:00,23.4,19.0,29.89,WSW,240,2.0,2.0,83,0.00,,,0.00,Wunderground v.1.15,2016-02-10 10:15:00,
2016-02-10 05:25:00,23.1,18.7,29.89,WSW,253,2.0,8.0,83,0.00,,,0.00,Wunderground v.1.15,2016-02-10 10:25:00,
2016-02-10 05:30:00,23.1,18.7,29.89,WSW,253,2.0,8.0,83,0.00,,,0.00,Wunderground v.1.15,2016-02-10 10:30:00,
2016-02-10 05:35:00,23.0,18.6,29.89,WSW,253,2.0,8.0,83,0.00,,,0.00,Wunderground v.1.15,2016-02-10 10:35:00,
2016-02-10 05:40:00,23.0,18.6,29.89,WSW,254,2.0,8.0,83,0.00,,,0.00,Wunderground v.1.15,2016-02-10 10:40:00,
2016-02-10 05:45:00,23.0,18.6,29.89,WSW,250,2.0,8.0,83,0.00,,,0.00,Wunderground v.1.15,2016-02-10 10:45:00,
2016-02-10 05:50:00,23.0,18.9,29.89,WSW,250,2.0,2.0,84,0.00,,,0.00,Wunderground v.1.15,2016-02-10 10:50:00,
2016-02-10 05:55:00,22.9,18.8,29.89,WSW,250,1.0,8.0,84,0.00,,,0.00,Wunderground v.1.15,2016-02-10 10:55:00,
2016-02-10 06:00:00,22.9,18.8,29.90,WSW,250,0.0,8.0,84,0.00,,,0.00,Wunderground v.1.15,2016-02-10 11:00:00,
2016-02-10 06:10:00,22.8,19.0,29.90,WSW,250,0.0,8.0,85,0.00,,,0.00,Wunderground v.1.15,2016-02-10 11:10:00,
2016-02-10 06:20:00,22.7,18.9,29.90,WSW,250,0.0,8.0,85,0.00,,,0.00,Wunderground v.1.15,2016-02-10 11:20:00,
2016-02-10 06:25:00,22.7,18.9,29.90,WSW,250,1.0,8.0,85,0.00,,,0.00,Wunderground v.1.15,2016-02-10 11:25:00,
2016-02-10 06:30:00,22.7,18.9,29.90,WSW,250,1.0,8.0,85,0.00,,,0.00,Wunderground v.1.15,2016-02-10 11:30:00,
2016-02-10 06:35:00,22.6,18.8,29.90,WSW,251,2.0,8.0,85,0.00,,,0.00,Wunderground v.1.15,2016-02-10 11:35:00,
2016-02-10 06:40:00,22.6,18.8,29.90,WSW,255,2.0,8.0,85,0.00,,,0.00,Wunderground v.1.15,2016-02-10 11:40:00,
2016-02-10 06:45:00,22.5,18.4,29.90,WSW,255,2.0,8.0,84,0.00,,,0.00,Wunderground v.1.15,2016-02-10 11:45:00,
2016-02-10 06:50:00,22.5,18.4,29.90,WSW,255,2.0,2.0,84,0.00,,,0.00,Wunderground v.1.15,2016-02-10 11:50:00,
2016-02-10 06:55:00,22.4,18.3,29.90,WSW,255,1.0,8.0,84,0.00,,,0.00,Wunderground v.1.15,2016-02-10 11:55:00,
2016-02-10 07:05:00,22.4,18.6,29.90,WSW,256,0.0,2.0,85,0.00,,,0.00,Wunderground v.1.15,2016-02-10 12:05:00,
2016-02-10 07:10:00,22.6,18.5,29.90,WSW,256,1.0,8.0,84,0.00,,,0.00,Wunderground v.1.15,2016-02-10 12:10:00,
2016-02-10 07:15:00,22.5,18.4,29.90,WSW,257,2.0,8.0,84,0.00,,,0.00,Wunderground v.1.15,2016-02-10 12:15:00,
2016-02-10 07:20:00,22.4,18.6,29.90,WSW,256,1.0,1.0,85,0.00,,,0.00,Wunderground v.1.15,2016-02-10 12:20:00,
2016-02-10 07:30:00,22.1,18.8,29.91,WSW,256,1.0,2.0,87,0.00,,,0.00,Wunderground v.1.15,2016-02-10 12:30:00,
2016-02-10 07:35:00,22.3,19.0,29.91,WSW,254,1.0,2.0,87,0.00,,,0.00,Wunderground v.1.15,2016-02-10 12:35:00,
2016-02-10 07:40:00,22.5,18.9,29.91,WSW,254,1.0,1.0,86,0.00,,,0.00,Wunderground v.1.15,2016-02-10 12:40:00,
2016-02-10 07:45:00,22.6,19.0,29.91,WSW,255,0.0,1.0,86,0.00,,,0.00,Wunderground v.1.15,2016-02-10 12:45:00,
2016-02-10 07:55:00,22.9,19.3,29.91,WSW,257,1.0,1.0,86,0.00,,,0.00,Wunderground v.1.15,2016-02-10 12:55:00,
2016-02-10 08:00:00,23.3,19.7,29.92,West,265,1.0,1.0,86,0.00,,,0.00,Wunderground v.1.15,2016-02-10 13:00:00,